Location: M.A.R.S.Observatory
(35.4031°N, 81.5481°W)
Time: 07:22:37
(UTC-05:00)

Daily predictions for brighter satellites

Satellite Brightness Start Highest point End
(mag) Time Altitude Azimuth Time Altitude Azimuth Time Altitude Azimuth
SL-16 R/B 2.7 18:31:24 10° NNW 18:37:04 70° WSW 18:42:41 10° S
SKYMED 2 4.1 18:40:54 10° N 18:45:13 66° WNW 18:49:30 10° SSW
NOAA 12 4.3 18:42:09 10° SSE 18:47:18 53° ENE 18:52:28 10° N
Abrixas rocket 2.2 18:45:39 10° SW 18:49:00 87° SE 18:52:22 10° NE
Cosmos 1741 Rocket 4.2 18:46:09 10° S 18:51:08 47° ESE 18:56:08 10° NNE
FREGAT/IRIS 3.4 18:49:06 10° SE 18:51:52 31° ENE 18:54:39 10° N
Cosmos 2322 Rocket 3.3 18:46:33 10° NNW 18:51:56 49° WSW 18:57:19 10° S
Meteor 1-28 Rocket 3.7 18:48:20 10° N 18:52:08 65° WNW 18:55:54 10° SSW
Tiangong 2 2.6 18:51:39 10° W 18:54:28 33° SW 18:57:16 10° SSE
Cosmos 1484 Rocket 4.5 18:52:06 10° SSW 18:55:49 39° W 18:59:30 10° NNW
Genesis I 4.2 18:52:58 10° N 18:56:24 28° NE 18:59:47 10° ESE
GPS 2-04 Rocket1 3.0 18:53:54 10° WSW 18:58:07 70° SSE 19:01:59 13° E
Okean 1-7 Rocket 4.4 18:54:38 10° NNE 18:58:36 30° ENE 19:02:31 10° SE
Cosmos 1536 Rocket 3.7 18:54:10 10° N 18:58:39 84° W 19:03:08 10° S
GEOS 3 Rocket 4.2 18:54:09 10° NE 18:58:59 37° ESE 19:03:50 10° S
Cosmos 1633 2.8 18:59:05 10° S 19:02:45 77° W 19:06:27 10° N
Cosmos 1140 Rocket 3.8 18:59:49 10° SSW 19:04:55 71° WNW 19:10:05 10° NNE
METEOR-M 4.1 19:00:12 10° SSE 19:05:31 78° ENE 19:10:53 10° N
Cosmos 614 Rocket 3.9 19:03:02 10° SSW 19:08:07 89° W 19:13:13 10° NNE
Hubble Space Telescope 2.4 19:07:02 10° SW 19:10:14 22° SSE 19:12:51 13° ESE
Cosmos 2322 3.7 19:06:10 10° NNW 19:11:55 77° ENE 19:17:35 10° SSE
Cosmos 1570 Rocket 4.3 19:06:58 10° N 19:11:59 46° ENE 19:17:01 10° SE
SJ-6B 2.7 19:08:38 10° SSE 19:12:37 67° ENE 19:16:31 10° N
ATLAS CENTAUR R/B 2.6 19:07:51 10° SSW 19:13:03 30° SE 19:14:32 20° E
Meteor 1-19 Rocket 4.2 19:10:29 10° N 19:16:13 80° E 19:22:00 10° S
ATLAS 2A CENTAUR R/B 3.3 19:15:56 10° SW 19:18:06 19° SSE 19:22:31 10° SE
Cosmos 1300 Rocket 4.2 19:16:36 10° SSW 19:20:56 59° W 19:25:19 10° N
Helios 1A 4.2 19:23:44 21° ENE 19:23:51 21° ENE 19:27:01 10° NNE
Cosmos 405 Rocket 4.3 19:21:15 10° NNE 19:23:33 19° ENE 19:23:33 19° ENE
CZ-2D R/B 4.2 19:24:00 24° E 19:24:45 26° ENE 19:27:57 10° NNE
USA 229 DEB 4.2 19:18:12 10° NNW 19:24:55 41° NE 19:29:54 18° ESE
USA 229 4.3 19:18:18 10° NNW 19:25:00 41° NE 19:29:56 18° ESE
H-2A R/B 3.2 19:22:45 11° SE 19:26:00 36° ENE 19:29:27 10° N
Spot 2 Rocket 3.7 19:21:13 10° SE 19:26:02 46° ENE 19:30:52 10° N
Cosmos 2297 Rocket 3.6 19:23:42 10° SE 19:26:20 18° ESE 19:26:20 18° ESE
Cosmos 2237 Rocket 3.6 19:24:04 10° NNE 19:27:49 18° NE 19:28:14 17° ENE
Okean 2 4.2 19:24:14 10° NNE 19:27:56 30° ENE 19:29:23 24° ESE
Cosmos 2333 4.5 19:23:15 10° N 19:28:46 46° ENE 19:33:43 13° SE
COSMOS 2428 2.8 19:23:59 10° NNW 19:29:33 54° ENE 19:35:07 10° SE
Cosmos 2237 4.1 19:23:50 10° NNW 19:29:34 71° ENE 19:35:14 10° SSE
DELTA 2 R/B (1) 3.9 19:24:06 10° WNW 19:29:40 63° SSW 19:33:55 17° SE
Helios 1B rocket 3.2 19:27:38 10° NE 19:31:19 30° E 19:34:58 10° SSE
Cosmos 1238 Rocket 3.8 19:31:26 10° NNW 19:34:11 36° W 19:37:04 10° SSW
Meteor 2-4 Rocket 3.5 19:28:44 10° N 19:34:15 81° E 19:39:37 10° S
Resurs 01 Rocket 1.6 19:30:28 10° SSE 19:34:47 59° ENE 19:39:07 10° N
SL-19 R/B 4.3 19:29:40 10° SSE 19:35:14 63° ENE 19:41:11 10° N
Atlas Centaur 2 3.9 19:30:54 10° SSW 19:36:04 20° SSE 19:38:25 17° SE
Meteor 1-23 Rocket 4.2 19:31:33 10° N 19:37:20 70° E 19:43:00 10° SSE
Cosmos 2360 Rocket 3.1 19:35:57 10° NNW 19:41:25 51° WSW 19:46:52 10° S
Cosmos 2208 Rocket 4.0 19:36:17 10° NNW 19:41:45 82° ENE 19:47:07 10° SSE
Cosmos 1536 3.7 19:38:04 10° SSW 19:41:57 51° W 19:45:50 10° N
Cosmos 2219 Rocket 2.7 19:36:46 10° N 19:41:57 37° ENE 19:43:37 31° E
Cosmos 2327 Rocket 4.4 19:37:01 10° S 19:43:13 81° E 19:49:34 10° N
Cosmos 2219 3.7 19:38:25 10° SSW 19:44:06 63° WNW 19:49:48 10° NNE
HJ-1C 3.8 19:42:59 10° S 19:46:20 63° W 19:49:41 10° NNW
Cosmos 2227 Rocket 2.6 19:42:19 10° S 19:47:30 39° ESE 19:49:26 30° ENE
Resurs 1-3 3.5 19:43:20 10° SSE 19:47:40 69° ENE 19:52:03 10° N
SL-16 R/B 4.2 19:59:42 10° NNE 20:00:38 12° NNE 20:00:38 12° NNE
Cosmos 2074 Rocket 4.4 19:56:47 10° SSW 20:02:57 64° W 20:09:12 10° N
OTV 4 1.9 20:00:28 10° WSW 20:02:21 34° WSW 20:02:21 34° WSW
Spot 1 4.0 20:03:52 60° NE 20:03:52 60° NE 20:07:32 10° N
Cosmos 1892 Rocket 3.6 20:02:58 10° N 20:06:48 62° NE 20:06:48 62° NE
SAR-Lupe-4 4.4 20:10:00 42° NNW 20:10:00 42° NNW 20:12:27 10° NNW
Cosmos 1486 Rocket 4.4 20:03:55 10° S 20:07:58 45° SE 20:07:58 45° SE
ALOS 3.6 20:06:53 10° SSW 20:11:14 39° W 20:15:36 10° NNW
Cosmos 1025 Rocket 4.1 20:09:35 10° NNW 20:13:48 46° W 20:18:00 10° SSW
Cosmos 2333 Rocket 2.1 20:18:14 10° NNW 20:23:54 69° ENE 20:23:54 69° ENE
Cosmos 1980 4.1 20:21:39 10° NNW 20:26:08 49° NNE 20:26:08 49° NNE
Cosmos 1544 Rocket 4.1 20:23:51 10° SSW 20:28:05 56° W 20:32:21 10° N
Nadezhda 3 Rocket 3.8 20:24:04 10° N 20:30:15 83° E 20:31:35 58° SSE
Cosmos 2341 Rocket 3.9 20:28:24 10° S 20:34:45 84° E 20:41:10 10° N
Cosmos 2154 Rocket 4.2 20:31:14 10° SSW 20:37:32 69° W 20:43:52 10° N
GPS 2-04 Rocket1 4.2 20:33:43 10° W 20:36:30 39° W 20:36:30 39° W
NOSS 0 Rocket 3.8 20:35:54 10° NNW 20:42:04 84° WSW 20:42:07 84° WSW
Cosmos 2082 4.0 20:43:13 10° SSW 20:48:27 65° W 20:48:27 65° W
Hubble Space Telescope 3.4 20:47:21 10° WSW 20:48:14 15° SW 20:48:14 15° SW
Cosmos 2297 Rocket 3.8 21:05:36 10° SW 21:08:19 28° SW 21:08:19 28° SW
Cosmos 2237 Rocket 3.5 21:06:41 10° NNW 21:10:06 36° NW 21:10:06 36° NW
Atlas Centaur 2 4.4 21:18:51 10° SW 21:21:05 20° SW 21:21:05 20° SW
Cosmos 2219 Rocket 4.0 21:21:09 10° NW 21:25:25 25° W 21:25:25 25° W
Cosmos 2227 Rocket 4.1 21:26:59 10° WSW 21:31:29 26° WNW 21:31:29 26° WNW
CZ-3 Stage 3 4.2 21:11:39 10° WSW 21:32:49 45° SSW 21:32:49 45° SSW
